Volver al catálogo

STARLINK-4353

ActivoComunicacionesSSO
NORAD 53214·PAYLOAD·🇺🇸 United States

Lanzado Jul 22, 2022 desde Vandenberg Space Force Base

Loading…

Próximos Pases (próximas 24 horas)

TLE

ActualizadoSource: CelesTrak SupGP

Época: Sep 14, 2026, 14:12 UTC

1 53214C 22084AB  26257.59215278  .00064595  00000+0  20049-2 0  2574
2 53214  97.2837 312.4199 0001650 112.2830 163.6611 15.33409799    16

Sigue STARLINK-4353 en tiempo real con AllMySat

Download on the App Store